Location: ????????
(55.0808°N, 38.5463°E)
Time: 14:43:23
(UTC+00:00)

ALOS - Pass Details

Date: 14 April 2024
Orbit: 674 x 675 km, 98.0° (Epoch: 19 May)

Event Time Altitude Azimuth Distance (km) Brightness Sun altitude
Rises 00:00:51 0° 18° (NNE) 3,049 6.9 -17.8°
Reaches altitude 10° 00:03:10 10° 23° (NNE) 2,128 5.9 -17.6°
Maximum altitude 00:07:42 50° 100° (E) 863 2.9 -17.1°
Enters shadow 00:11:15 16° 172° (S) 1,750 4.0 -16.8°
